Regional Weather Roundup
Issued by NWS New Orleans/Baton Rouge, LA

Home | Current Version | Previous Version | Graphics & Text | Print | Product List | Glossary On
Versions: 1 2 3 4 5 6 7 8 9 10 11 12 13 14 15 16 17 18 19 20 21 22 23 24 25 26 27 28 29 30 31 32 33 34 35 36 37 38 39 40 41 42 43 44 45 46 47 48 49 50
417
ASUS44 KLIX 230701
RWRLIX
NEW ORLEANS REGIONAL WEATHER ROUNDUP
NATIONAL WEATHER SERVICE NEW ORLEANS LA
100 AM CST SUN NOV 23 2014

NOTE: "FAIR" INDICATES FEW OR NO CLOUDS BELOW 12,000 FEET WITH NO
      SIGNIFICANT WEATHER AND/OR OBSTRUCTIONS TO VISIBILITY.
      SKY/WX - SKY CONDITION AND SIGNIFICANT WEATHER.
      TMP - AIR TEMPERATURE.     DP    - DEWPOINT TEMPERATURE.
      RH  - RELATIVE HUMIDITY.   PRES  - PRESSURE.
      HI  - HEAT INDEX.          WCI   - WIND CHILL INDEX.

*  THESE STATIONS ARE NOT NWS OR FAA STATIONS AND ARE NOT UNDER
   NWS QUALITY CONTROL.

LAZ038-040-048-061>063-065>067-069-230800-
SOUTHEAST LOUISIANA

CITY           SKY/WX    TMP DP  RH WIND       PRES   REMARKS
N.O. AUDUBON     N/A     61  61 100 MISG        N/A
N.O. INTL ARPT CLOUDY    63  61  93 E7        29.86R
N.O. LAKEFRONT CLOUDY    62  59  90 E16       29.86F
N.O. DOWNTOWN* CLOUDY    61  55  82 CALM      29.87S
SLIDELL        CLOUDY    64  60  87 SE10      29.87F
BATON ROUGE    CLOUDY    63  61  93 E10       29.84F
BOOTHVILLE     CLOUDY    65  65 100 E8        29.85F
BELLE CHASSE   CLOUDY    62  59  90 NE12      29.85S
BOGALUSA*        N/A     64  59  83 E5        29.89F
NEW ROADS*     NOT AVBL
GONZALES*      NOT AVBL
HAMMOND*       NOT AVBL
HOUMA*         LGT RAIN  64  64  97 NE9       29.84F
PORT FOURCHON* PTSUNNY   68  66  94 SE14      29.86S

$$

MSZ070-080>082-230800-
SOUTHERN MISSISSIPPI

CITY           SKY/WX    TMP DP  RH WIND       PRES   REMARKS
MCCOMB         CLOUDY    61  59  93 SE8       29.87F
GULFPORT       CLOUDY    63  60  90 NE5       29.88F
BILOXI         CLOUDY    62  61  96 E9        29.87F
PASCAGOULA     CLOUDY    62  60  93 E8        29.88F

$$

COASTAL OBSERVATIONS
LAKE AND NEARSHORE STATIONS

STATION/POSITION TIME  TEMP    WIND        PRES    WAVE
                       AIR SEA DIR/SP/G            HT/PER
                 (UTC) (F)     (DEG/KT/KT) (MB)    (FT/S)
PASCAGOULA       0600   62      70/ 15/ 18 1011.4
WAVELAND YACHT   0600   62     100/ 18/ 20 1010.8
GRAND ISLE       0600   67 62  110/  7/ 12 1010.6
SOUTHWEST PASS   0600   69 72              1010.2
NEW CANAL        0600   63 55   80/  6/ 11 1011.6
SHELL BEACH      0600   59 52   50/ 12/ 12 1011.1

OFFSHORE STATIONS

STATION/POSITION TIME  TEMP    WIND        PRES    WAVE
                       AIR SEA DIR/SP/G            HT/PER
                 (UTC) (F)     (DEG/KT/KT) (MB)    (FT/S)
64 S DAUPHIN ISL 0605   72 72  110/ 19/ 21 1010.9    8/ 7

$$




USA.gov is the U.S. government's official web portal to all federal, state and local government web resources and services.